Butler, PA

10:53 PM EDT on September 20, 2017 (GMT -0400)
Butler County-Scholter

Weather History for KBTP - September, 2013

Change the Weather History Date:

Friday, September 20, 2013

  Actual Average Record
Temperature  
Mean Temperature 66 °F -  
Max Temperature 78 °F 68 °F 88 °F (1983)
Min Temperature 55 °F 49 °F 33 °F (1979)
Cooling Degree Days 2    
Growing Degree Days 16 (Base 50)    
Moisture  
Dew Point 62 °F    
Average Humidity 82    
Maximum Humidity 94    
Minimum Humidity 65    
Precipitation  
Precipitation 0.00 in - - ()
Sea Level Pressure  
Sea Level Pressure 29.99 in    
Wind  
Wind Speed 3 mph (SSE)    
Max Wind Speed 12 mph    
Max Gust Speed -    
Visibility 7 miles    
Events      
Averages and records for this station are not official NWS values.
T = Trace of Precipitation, MM = Missing Value Source: NWS Daily Summary

Daily Weather History Graph

Daily Weather History Graph

Search for Another Location

Airport or City:

Trip Planner

Search our weather history database for the weather conditions in past years. The results will help you decide how hot, cold, wet, or windy it might be!

Date:

Astronomy

Sep. 20, 2013 Rise Set
Actual Time 7:05 AM EDT 7:19 PM EDT
Civil Twilight 6:38 AM EDT 7:47 PM EDT
Nautical Twilight 6:06 AM EDT 8:19 PM EDT
Astronomical Twilight 5:33 AM EDT 8:52 PM EDT
Moon 7:51 PM EDT (9/20) 8:19 AM EDT (9/20)
Length of Visible Light 13h 09m
Length of Day
12h 14m
Full, 98% of the Moon is Illuminated
Sep 20
Full
Sep 26
Last Quarter
Oct 4
New
Oct 11
First Quarter
Oct 18
Full

Hourly Weather History & Observations

Time (EDT) Temp. Dew Point Humidity Pressure Visibility Wind Dir Wind Speed Gust Speed Precip Events Conditions
12:15 AM 57.2 °F 53.6 °F 88% 30.08 in 3.0 mi Calm Calm - N/A   Clear
12:35 AM 57.2 °F 55.4 °F 94% 30.08 in 1.5 mi Calm Calm - N/A   Clear
12:55 AM 57.2 °F 55.4 °F 94% 30.08 in 2.0 mi Calm Calm - N/A   Clear
1:15 AM 55.4 °F 53.6 °F 94% 30.07 in 0.2 mi Calm Calm - N/A   Unknown
1:35 AM 55.4 °F 53.6 °F 94% 30.08 in 2.5 mi East 3.5 mph - N/A   Clear
1:55 AM 55.4 °F 53.6 °F 94% 30.07 in 3.0 mi Calm Calm - N/A   Mostly Cloudy
2:15 AM 55.4 °F 53.6 °F 94% 30.07 in 3.0 mi SE 3.5 mph - N/A   Mostly Cloudy
2:35 AM 55.4 °F 53.6 °F 94% 30.08 in 1.8 mi Calm Calm - N/A   Scattered Clouds
2:55 AM 55.4 °F 53.6 °F 94% 30.07 in 1.2 mi Calm Calm - N/A   Clear
3:15 AM 57.2 °F 53.6 °F 88% 30.07 in 1.2 mi Calm Calm - N/A   Mostly Cloudy
3:35 AM 57.2 °F 55.4 °F 94% 30.06 in 2.5 mi Calm Calm - N/A   Overcast
3:55 AM 59.0 °F 57.2 °F 94% 30.07 in 3.0 mi Calm Calm - N/A   Overcast
4:15 AM 60.8 °F 57.2 °F 88% 30.06 in 3.0 mi Calm Calm - N/A   Overcast
4:35 AM 60.8 °F 57.2 °F 88% 30.06 in 4.0 mi Calm Calm - N/A   Overcast
4:55 AM 60.8 °F 57.2 °F 88% 30.06 in 4.0 mi SSE 3.5 mph - N/A   Overcast
5:15 AM 60.8 °F 57.2 °F 88% 30.05 in 4.0 mi SE 4.6 mph - N/A   Overcast
5:35 AM 60.8 °F 57.2 °F 88% 30.05 in 4.0 mi Calm Calm - N/A   Overcast
5:55 AM 60.8 °F 57.2 °F 88% 30.05 in 4.0 mi SE 4.6 mph - N/A   Overcast
6:15 AM 60.8 °F 57.2 °F 88% 30.05 in 5.0 mi SSE 3.5 mph - N/A   Overcast
6:35 AM 60.8 °F 57.2 °F 88% 30.05 in 4.0 mi SE 3.5 mph - N/A   Mostly Cloudy
6:55 AM 60.8 °F 57.2 °F 88% 30.05 in 4.0 mi SSE 3.5 mph - N/A   Overcast
7:15 AM 60.8 °F 57.2 °F 88% 30.06 in 3.0 mi SE 4.6 mph - N/A   Overcast
7:35 AM 60.8 °F 57.2 °F 88% 30.05 in 3.0 mi ESE 9.2 mph - N/A   Overcast
7:55 AM 60.8 °F 57.2 °F 88% 30.05 in 2.5 mi ESE 4.6 mph - N/A   Scattered Clouds
8:15 AM 60.8 °F 59.0 °F 94% 30.05 in 2.5 mi SSE 4.6 mph - N/A   Clear
8:35 AM 62.6 °F 59.0 °F 88% 30.05 in 2.5 mi South 4.6 mph - N/A   Clear
8:55 AM 64.4 °F 60.8 °F 88% 30.05 in 3.0 mi South 5.8 mph - N/A   Mostly Cloudy
9:15 AM 64.4 °F 60.8 °F 88% 30.03 in 4.0 mi ESE 6.9 mph - N/A   Scattered Clouds
9:35 AM 66.2 °F 62.6 °F 88% 30.04 in 5.0 mi South 5.8 mph - N/A   Scattered Clouds
9:55 AM 66.2 °F 62.6 °F 88% 30.03 in 5.0 mi South 5.8 mph - N/A   Mostly Cloudy
10:15 AM 69.8 °F 62.6 °F 78% 30.03 in 7.0 mi SSE 9.2 mph - N/A   Mostly Cloudy
10:35 AM 69.8 °F 62.6 °F 78% 30.04 in 8.0 mi Calm Calm - N/A   Mostly Cloudy
10:55 AM 69.8 °F 62.6 °F 78% 30.03 in 8.0 mi Calm Calm - N/A   Overcast
11:15 AM 71.6 °F 64.4 °F 78% 30.03 in 8.0 mi SSE 8.1 mph - N/A   Mostly Cloudy
11:35 AM 71.6 °F 64.4 °F 78% 30.02 in 9.0 mi SSW 8.1 mph - N/A   Overcast
11:55 AM 71.6 °F 64.4 °F 78% 30.02 in 8.0 mi SSE 5.8 mph - N/A   Mostly Cloudy
12:15 PM 73.4 °F 66.2 °F 78% 30.02 in 9.0 mi South 8.1 mph - N/A   Partly Cloudy
12:35 PM 73.4 °F 66.2 °F 78% 30.02 in 10.0 mi South 5.8 mph - N/A   Mostly Cloudy
12:55 PM 75.2 °F 66.2 °F 73% 30.02 in 10.0 mi South 9.2 mph - N/A   Mostly Cloudy
1:15 PM 73.4 °F 66.2 °F 78% 30.01 in 10.0 mi SSW 6.9 mph - N/A   Overcast
1:35 PM 75.2 °F 66.2 °F 73% 29.99 in 10.0 mi South 4.6 mph - N/A   Overcast
1:55 PM 75.2 °F 66.2 °F 73% 29.99 in 10.0 mi South 11.5 mph - N/A   Overcast
2:15 PM 75.2 °F 66.2 °F 73% 29.98 in 10.0 mi SSW 8.1 mph - N/A   Mostly Cloudy
2:35 PM 77.0 °F 66.2 °F 69% 29.98 in 10.0 mi South 5.8 mph - N/A   Mostly Cloudy
2:55 PM 77.0 °F 66.2 °F 69% 29.97 in 10.0 mi SSW 9.2 mph - N/A   Mostly Cloudy
3:15 PM 78.8 °F 66.2 °F 65% 29.96 in 10.0 mi South 8.1 mph - N/A   Scattered Clouds
3:35 PM 78.8 °F 66.2 °F 65% 29.95 in 10.0 mi SSE 6.9 mph - N/A   Scattered Clouds
3:55 PM 77.0 °F 66.2 °F 69% 29.95 in 10.0 mi SSE 8.1 mph - N/A   Scattered Clouds
4:15 PM 77.0 °F 66.2 °F 69% 29.95 in 10.0 mi South 6.9 mph - N/A   Mostly Cloudy
4:35 PM 78.8 °F 66.2 °F 65% 29.93 in 10.0 mi South 11.5 mph - N/A   Scattered Clouds
4:55 PM 77.0 °F 66.2 °F 69% 29.93 in 10.0 mi SSE 8.1 mph - N/A   Partly Cloudy
5:15 PM 77.0 °F 66.2 °F 69% 29.92 in 10.0 mi SSE 9.2 mph - N/A   Partly Cloudy
5:35 PM 77.0 °F 66.2 °F 69% 29.92 in 10.0 mi South 8.1 mph - N/A   Clear
5:55 PM 75.2 °F 64.4 °F 69% 29.92 in 10.0 mi South 9.2 mph - N/A   Partly Cloudy
6:15 PM 75.2 °F 66.2 °F 73% 29.91 in 10.0 mi South 4.6 mph - N/A   Mostly Cloudy
6:35 PM 75.2 °F 66.2 °F 73% 29.91 in 10.0 mi South 6.9 mph - N/A   Scattered Clouds
6:55 PM 73.4 °F 64.4 °F 73% 29.90 in 10.0 mi South 3.5 mph - N/A   Clear
7:15 PM 73.4 °F 64.4 °F 73% 29.91 in 10.0 mi South 5.8 mph - N/A   Clear
7:35 PM 71.6 °F 64.4 °F 78% 29.90 in 10.0 mi South 5.8 mph - N/A   Clear
7:55 PM 71.6 °F 64.4 °F 78% 29.91 in 10.0 mi South 4.6 mph - N/A   Clear
8:15 PM 71.6 °F 64.4 °F 78% 29.90 in 10.0 mi South 4.6 mph - N/A   Clear
8:35 PM 71.6 °F 64.4 °F 78% 29.90 in 10.0 mi SSW 6.9 mph - N/A   Clear
8:55 PM 69.8 °F 64.4 °F 83% 29.90 in 10.0 mi South 5.8 mph - N/A   Clear
9:15 PM 69.8 °F 64.4 °F 83% 29.91 in 10.0 mi South 4.6 mph - N/A   Clear
9:35 PM 69.8 °F 64.4 °F 83% 29.91 in 8.0 mi SSE 5.8 mph - N/A   Clear
9:55 PM 69.8 °F 64.4 °F 83% 29.91 in 8.0 mi South 5.8 mph - N/A   Clear
10:15 PM 69.8 °F 64.4 °F 83% 29.91 in 8.0 mi South 3.5 mph - N/A   Clear
10:35 PM 69.8 °F 64.4 °F 83% 29.89 in 8.0 mi SSE 4.6 mph - N/A   Clear
10:55 PM 69.8 °F 64.4 °F 83% 29.89 in 7.0 mi SSE 4.6 mph - N/A   Clear
11:15 PM 68.0 °F 64.4 °F 88% 29.89 in 7.0 mi SSE 4.6 mph - N/A   Clear
11:35 PM 68.0 °F 64.4 °F 88% 29.87 in 7.0 mi SSE 4.6 mph - N/A   Clear
11:55 PM 68.0 °F 64.4 °F 88% 29.87 in 7.0 mi SE 4.6 mph - N/A   Clear